Regional Weather Roundup
Issued by NWS Albany, NY

Home | Current Version | Previous Version | Graphics & Text | Print | Product List | Glossary Off
Versions: 1 2 3 4 5 6 7 8 9 10 11 12 13 14 15 16 17 18 19 20 21 22 23 24 25 26 27 28 29 30 31 32 33 34 35 36 37 38 39 40 41 42 43 44 45 46 47 48 49 50

000
ASUS41 KALY 280510
RWRALY

NEW YORK STATE HOURLY WEATHER ROUNDUP
NATIONAL WEATHER SERVICE ALBANY NY
100 AM EDT FRI AUG 28 2015

NOTE: "FAIR" INDICATES FEW OR NO CLOUDS BELOW 12,000 FEET WITH NO
SIGNIFICANT WEATHER AND/OR NO OBSTRUCTIONS TO VISIBILITY.

NYZ032-033-038>043-046>054-057>066-NYZ062>081-280600-
EAST


CITY           SKY/WX    TMP DP  RH WIND       PRES   REMARKS
ALBANY         CLEAR     62  53  72 W3        30.14R
GLENS FALLS    CLEAR     55  51  86 CALM      30.12S
POUGHKEEPSIE   CLEAR     58  55  90 CALM      30.13S
NEWBURGH       PTCLDY    59  57  94 W7        30.15S
MONTGOMERY     PTCLDY    56  54  93 CALM      30.15R
WHITE PLAINS   CLEAR     63  54  72 N7        30.13R
ISLIP          CLEAR     64  55  72 NW3       30.11R
NEW YORK CITY  PTCLDY    70  54  56 NW3       30.12S
CENTRAL PARK   CLEAR     69  52  54 VRB3      30.16R
$$

NYZ005>009-017-018-044>046-055-056-280600-
CENTRAL


CITY           SKY/WX    TMP DP  RH WIND       PRES   REMARKS
FULTON         CLOUDY    59  55  87 S3        30.16R
SYRACUSE       PTCLDY    56  54  93 CALM      30.16R
ROME           MOCLDY    55  54  96 CALM      30.18R
ELMIRA         PTCLDY    51  51 100 SW3       30.19R
BINGHAMTON     CLOUDY    57  53  86 W3        30.19R
MONTICELLO     CLEAR     54  52  94 CALM      30.19R
$$

NYZ026>034-041>043-280600-
NORTH


CITY           SKY/WX    TMP DP  RH WIND       PRES   REMARKS
WATERTOWN      CLOUDY    53  51  93 CALM      30.15R
FORT DRUM      NOT AVBL
MASSENA        PTCLDY    54  52  93 CALM      30.14R FOG
SARANAC LAKE   CLOUDY    54  52  93 CALM      30.15R
PLATTSBURGH    CLEAR     60  55  83 VRB3      30.11R
$$

NYZ001>004-010>016-019>021-280600-
WEST


CITY           SKY/WX    TMP DP  RH WIND       PRES   REMARKS
NIAGARA FALLS  CLEAR     56  51  84 CALM      30.17R
BUFFALO        PTCLDY    57  52  83 S3        30.18R
DUNKIRK        CLOUDY    61  56  83 S5        30.18S
JAMESTOWN      CLEAR     54  50  87 CALM      30.21R
WELLSVILLE     FOG       53  50  89 CALM      30.23R VSB 1/2
ROCHESTER      PTCLDY    54  52  93 SW5       30.18R
PENN YAN       FAIR      53  51  93 S3        30.19R
$$

             KEY
       WCI = WIND CHILL INDEX
       VSB = VISIBILITY
       HX  = HEAT INDEX
$$



USA.gov is the U.S. government's official web portal to all federal, state and local government web resources and services.